Miscellaneous Local Product
Issued by NWS Hastings, NE

Home | Current Version | Previous Version | Text Only | Print | Product List | Glossary Off
Versions: 1 2 3 4 5 6 7 8 9 10 11 12 13 14 15 16 17 18 19 20 21 22 23 24 25 26 27 28 29 30 31 32 33 34 35 36 37 38 39 40 41 42 43 44 45 46 47 48 49 50

060
AXUS43 KGID 151002
MISGRI

GID CWA HOURLY WEATHER ROUNDUP
NATIONAL WEATHER SERVICE HASTINGS NE
400 AM CST MON JAN 15 2018

NOTE: "FAIR" INDICATES FEW OR NO CLOUDS BELOW 12,000 FEET WITH NO
SIGNIFICANT WEATHER AND/OR OBSTRUCTIONS TO VISIBILITY.

...SOUTH CENTRAL NEBRASKA...

CITY           SKY/WX    TMP DP  RH WIND       PRES   REMARKS
GRAND ISLAND   PTCLDY     9   3  77 N22       30.40S WCI -11
KEARNEY        NOT AVBL
HASTINGS       CLOUDY    11   4  73 N17       30.40R WCI  -6
ORD            PTCLDY     6  -1  73 N23G33    30.42R WCI -15
YORK           PTCLDY    12   7  79 NW17G23   30.39R WCI  -5
AURORA         CLEAR      9   1  68 N22G31    30.41S WCI -11
LEXINGTON      MOCLDY    13   5  70 N16G29    30.41S WCI  -3
HOLDREGE       CLOUDY    14   4  66 N16G30    30.40R WCI  -2
HEBRON         CLOUDY    17   7  66 NW14G29   30.41R WCI   2

...NEBRASKA PANHANDLE...

CITY           SKY/WX    TMP DP  RH WIND       PRES   REMARKS
CHADRON        MOCLDY     5  -4  66 CALM      30.49R
ALLIANCE       CLOUDY     9  -1  64 N20       30.37R WCI -10
SCOTTSBLUFF    CLOUDY    20   8  60 N17       30.39R WCI   5
SIDNEY         CLOUDY    16  12  84 N12       30.34R WCI   3

...WESTERN AND NORTH CENTRAL NEBRASKA...

CITY           SKY/WX    TMP DP  RH WIND       PRES   REMARKS
VALENTINE      CLEAR      1  -6  72 NW16G26   30.47R WCI -19
AINSWORTH      PTCLDY     1  -4  80 N23G29    30.44R WCI -22
ONEILL         CLOUDY     3  -2  77 NW15      30.45R WCI -15
BROKEN BOW     PTCLDY     6  -2  69 N24G30    30.40R WCI -16
IMPERIAL       CLOUDY    19   9  65 N18       30.37R WCI   4
NORTH PLATTE   MOCLDY    14   6  70 N20G25    30.40R WCI  -3
MCCOOK         CLOUDY    22  17  81 N16       30.38R WCI   8

...EASTERN NEBRASKA...

CITY           SKY/WX    TMP DP  RH WIND       PRES   REMARKS
NORFOLK        MOCLDY     4  -3  73 N22G30    30.41R WCI -18
SO SIOUX CITY  CLEAR      3  -5  69 NW20      30.41R WCI -18
TEKAMAH        MOCLDY     7  -1  70 NW22      30.42R WCI -14
COLUMBUS       MOCLDY     6   0  76 NW17      30.43R WCI -13
ALBION         CLOUDY    10   3  74 NW15G24   30.41R WCI  -7
OMAHA EPPLEY   LGT SNOW  12   7  80 NW23G31   30.38R WCI  -7
OFFUTT AFB     MOCLDY    13   3  66 NW17G25   30.36S WCI  -4
MILLARD        CLOUDY    13   3  64 NW15G23   30.40R WCI  -3
LINCOLN        MOCLDY    10   0  63 N25G37    30.43R WCI -11
NEBRASKA CITY  CLOUDY    15   8  75 N14       30.36R WCI   0
BEATRICE       CLOUDY    17   9  71 N17       30.37R WCI   1
FALLS CITY     CLOUDY    14   4  64 N16G28    30.37R WCI  -2

...NORTHERN KANSAS...

CITY           SKY/WX    TMP DP  RH WIND       PRES   REMARKS
GOODLAND       CLOUDY    27  25  92 NE17      30.30R WCI  14
HILL CITY      CLOUDY    25  19  78 N15G28    30.37R WCI  13
NORTON         CLOUDY    19  12  73 N13       30.37  WCI   7
PHILLIPSBURG   CLOUDY    21  10  63 NW18G24   30.41R WCI   6
SMITH CENTER   MOCLDY    19  14  79 N13G24    30.39R WCI   7
HAYS           LGT SNOW  29  26  89 N24G32    30.34R FOG     WCI  15
RUSSELL        LGT SNOW N/A N/A N/A N17G29    30.33R
CONCORDIA      CLOUDY    22  15  75 N17       30.38R WCI   8
SALINA         LGT SNOW  31  30  96 N15       30.35R VSB 3/4 WCI  20
TOPEKA         CLOUDY    25  18  74 N20       30.34R WCI  11



USA.gov is the U.S. government's official web portal to all federal, state and local government web resources and services.